P43G-13 Weather Reports


time (UTC)temp
C
wind
direction
speed
KPH
gust
KPH
rain 1hr
cm
rain 24hr
cm
rain mn
cm
humidity
%
barometer
mb
20260902224512 29 97 19.3 33.8 0.00 0.00 0.00 81 1010.2
20260902224014 29 65 11.3 33.8 0.00 0.00 0.00 81 1009.9
20260902223512 29 37 11.3 30.6 0.00 0.00 0.00 80 1009.9
20260902223013 29 153 12.9 37.0 0.00 0.00 0.00 80 1010.1
20260902222513 29 79 12.9 37.0 0.00 0.00 0.00 79 1010.1
20260902222013 29 85 22.5 35.4 0.00 0.00 0.00 79 1010.0
20260902221513 29 94 22.5 35.4 0.00 0.00 0.00 79 1010.0
20260902221013 30 52 22.5 33.8 0.00 0.00 0.00 79 1009.9
20260902220513 30 47 17.7 40.2 0.00 0.00 0.00 79 1009.7
20260902220012 30 67 14.5 40.2 0.00 0.00 0.00 79 1009.6
20260902215513 30 98 12.9 30.6 0.00 0.00 0.00 78 1009.6
20260902215012 30 55 11.3 33.8 0.00 0.00 0.00 78 1009.6
20260902214512 30 94 22.5 33.8 0.00 0.00 0.00 78 1009.6
20260902214011 30 45 12.9 33.8 0.00 0.00 0.00 78 1009.6
20260902213511 30 72 17.7 33.8 0.00 0.00 0.00 78 1009.6
20260902213011 30 70 24.1 35.4 0.00 0.00 0.00 78 1009.7
20260902212511 30 52 8.0 35.4 0.00 0.00 0.00 77 1009.4
20260902212011 30 73 14.5 33.8 0.00 0.00 0.00 77 1009.6
20260902211511 30 62 9.7 30.6 0.00 0.00 0.00 77 1009.6
20260902211011 30 108 9.7 29.0 0.00 0.00 0.00 76 1009.7
20260902210511 30 110 11.3 37.0 0.00 0.00 0.00 77 1009.7
20260902210011 30 61 20.9 37.0 0.00 0.00 0.00 77 1010.0
20260902205511 30 15 6.4 35.4 0.00 0.00 0.00 76 1010.0
20260902205011 30 68 17.7 35.4 0.00 0.00 0.00 76 1009.8
20260902204511 30 92 25.7 38.6 0.00 0.00 0.00 75 1010.1
20260902204011 30 43 16.1 38.6 0.00 0.00 0.00 75 1010.2
20260902203511 30 75 6.4 37.0 0.00 0.00 0.00 76 1010.1
20260902203011 31 28 14.5 33.8 0.00 0.00 0.00 75 1010.1
20260902202511 31 90 16.1 35.4 0.00 0.00 0.00 75 1010.2
20260902202011 31 102 20.9 37.0 0.00 0.00 0.00 75 1010.2
20260902201511 31 52 25.7 37.0 0.00 0.00 0.00 74 1010.6
20260902201011 31 61 12.9 30.6 0.00 0.00 0.00 74 1010.1
20260902200511 31 92 16.1 27.4 0.00 0.00 0.00 74 1010.3
20260902200011 31 91 19.3 27.4 0.00 0.00 0.00 74 1010.4
20260902195511 31 71 12.9 29.0 0.00 0.00 0.00 73 1010.2
20260902195011 31 93 20.9 38.6 0.00 0.00 0.00 75 1010.4
20260902194511 31 64 19.3 38.6 0.00 0.00 0.00 75 1010.7
20260902194010 31 33 14.5 38.6 0.00 0.00 0.00 74 1010.7
20260902193511 31 86 19.3 38.6 0.00 0.00 0.00 74 1010.8
20260902193011 31 92 20.9 38.6 0.00 0.00 0.00 73 1010.8
20260902192511 31 43 12.9 38.6 0.00 0.00 0.00 74 1010.6
20260902192011 31 134 17.7 38.6 0.00 0.00 0.00 73 1010.9
20260902191511 31 40 20.9 35.4 0.00 0.00 0.00 72 1010.6
20260902191010 31 45 16.1 35.4 0.00 0.00 0.00 73 1010.7
20260902190511 31 45 20.9 33.8 0.00 0.00 0.00 73 1010.9
20260902190011 32 89 14.5 33.8 0.00 0.00 0.00 72 1011.0
20260902185511 31 72 16.1 33.8 0.00 0.00 0.00 72 1011.1
20260902185011 32 91 6.4 30.6 0.00 0.00 0.00 69 1011.1
20260902184516 32 61 9.7 33.8 0.00 0.00 0.00 71 1011.1
20260902184010 32 66 12.9 29.0 0.00 0.00 0.00 71 1011.2
20260902183510 31 78 9.7 30.6 0.00 0.00 0.00 72 1011.2
20260902183010 32 82 12.9 33.8 0.00 0.00 0.00 70 1011.5
20260902182511 32 59 12.9 33.8 0.00 0.00 0.00 70 1011.6
20260902182010 32 76 11.3 30.6 0.00 0.00 0.00 71 1011.5
20260902181511 32 95 14.5 29.0 0.00 0.00 0.00 70 1011.9
20260902181010 32 53 20.9 29.0 0.00 0.00 0.00 72 1011.6
20260902180510 32 99 11.3 29.0 0.00 0.00 0.00 72 1011.7
20260902180011 32 69 16.1 27.4 0.00 0.00 0.00 69 1012.0
20260902175511 32 73 12.9 33.8 0.00 0.00 0.00 69 1012.1
20260902175012 32 69 9.7 33.8 0.00 0.00 0.00 70 1012.3
20260902174510 32 80 11.3 33.8 0.00 0.00 0.00 70 1012.3
20260902174012 31 92 19.3 37.0 0.00 0.00 0.00 72 1012.3
20260902173511 32 82 14.5 37.0 0.00 0.00 0.00 70 1012.2
20260902173012 32 93 17.7 33.8 0.00 0.00 0.00 71 1012.3
20260902172511 32 125 11.3 29.0 0.00 0.00 0.00 70 1012.4
20260902172011 32 95 20.9 30.6 0.00 0.00 0.00 71 1012.4
20260902171511 32 73 19.3 30.6 0.00 0.00 0.00 71 1012.4
20260902171010 32 77 12.9 29.0 0.00 0.00 0.00 69 1012.5
20260902170510 32 74 16.1 35.4 0.00 0.00 0.00 70 1012.6
20260902170012 32 39 20.9 35.4 0.00 0.00 0.00 70 1012.6
20260902165511 32 107 14.5 30.6 0.00 0.00 0.00 70 1012.7
20260902165010 32 91 16.1 35.4 0.00 0.00 0.00 71 1012.9
20260902164511 32 55 17.7 35.4 0.00 0.00 0.00 72 1012.7
20260902164011 31 78 6.4 30.6 0.00 0.00 0.00 72 1013.1
20260902163511 32 81 14.5 33.8 0.00 0.00 0.00 72 1012.9
20260902162959 32 127 14.5 33.8 0.00 0.00 0.00 70 1013.0
20260902162459 32 103 9.7 29.0 0.00 0.00 0.00 71 1012.9
20260902162000 32 11 22.5 29.0 0.00 0.00 0.00 71 1013.0
20260902161459 32 130 11.3 29.0 0.00 0.00 0.00 70 1013.1
20260902160959 32 67 20.9 29.0 0.00 0.00 0.00 70 1013.0
20260902160459 32 80 17.7 29.0 0.00 0.00 0.00 71 1013.2
20260902155959 32 66 8.0 29.0 0.00 0.00 0.00 71 1012.9
20260902155448 32 68 12.9 30.6 0.00 0.00 0.00 70 1013.2
20260902154947 31 75 19.3 30.6 0.00 0.00 0.00 73 1013.2
20260902154447 31 179 20.9 35.4 0.00 0.00 0.00 72 1013.4
20260902153935 31 89 29.0 35.4 0.00 0.00 0.00 74 1013.4
20260902153435 31 102 8.0 30.6 0.00 0.00 0.00 73 1013.5
20260902152935 31 77 17.7 27.4 0.00 0.00 0.00 73 1013.4
20260902152423 32 105 6.4 29.0 0.00 0.00 0.00 70 1013.7
20260902151923 31 64 20.9 33.8 0.00 0.00 0.00 73 1013.5
20260902151423 31 55 9.7 35.4 0.00 0.00 0.00 73 1013.6
20260902150923 31 92 8.0 35.4 0.00 0.00 0.00 74 1013.6
20260902150423 31 72 14.5 33.8 0.00 0.00 0.00 73 1013.6
20260902145923 31 98 17.7 33.8 0.00 0.00 0.00 73 1013.6
20260902145423 31 126 17.7 35.4 0.00 0.00 0.00 73 1013.5
20260902144922 31 66 16.1 35.4 0.00 0.00 0.00 72 1013.6
20260902144423 31 55 9.7 35.4 0.00 0.00 0.00 72 1013.7
20260902143923 31 72 12.9 38.6 0.00 0.00 0.00 72 1013.6
20260902143423 31 111 14.5 38.6 0.00 0.00 0.00 72 1013.7
20260902142923 31 180 14.5 33.8 0.00 0.00 0.00 73 1013.7
20260902142423 31 93 16.1 33.8 0.00 0.00 0.00 73 1013.8
20260902141922 31 66 12.9 27.4 0.00 0.00 0.00 72 1014.0
20260902141423 31 83 19.3 27.4 0.00 0.00 0.00 71 1013.9
20260902140911 31 66 17.7 29.0 0.00 0.00 0.00 74 1013.7
20260902140411 31 186 3.2 29.0 0.00 0.00 0.00 73 1014.0
20260902135912 31 95 12.9 27.4 0.00 0.00 0.00 74 1013.9
20260902135410 31 101 9.7 30.6 0.00 0.00 0.00 73 1014.0
20260902134911 31 144 4.8 37.0 0.00 0.00 0.00 73 1014.0
20260902134411 31 171 14.5 37.0 0.00 0.00 0.00 74 1013.7
20260902133911 31 47 14.5 29.0 0.00 0.00 0.00 74 1013.8
20260902133411 30 99 12.9 37.0 0.00 0.00 0.00 76 1013.9
20260902132911 30 130 14.5 37.0 0.00 0.00 0.00 76 1013.7
20260902132411 30 55 17.7 33.8 0.00 0.00 0.00 75 1013.8
20260902131911 30 86 17.7 29.0 0.00 0.00 0.00 75 1013.8
20260902131411 30 109 6.4 30.6 0.00 0.00 0.00 77 1013.8
20260902130911 30 107 14.5 33.8 0.00 0.00 0.00 76 1013.6
20260902130410 30 82 17.7 33.8 0.00 0.00 0.00 77 1013.6
20260902125911 30 80 17.7 30.6 0.00 0.00 0.00 78 1013.4
20260902125411 30 62 9.7 40.2 0.00 0.00 0.00 78 1013.3
20260902124911 30 106 14.5 40.2 0.00 0.00 0.00 78 1013.7
20260902124411 30 100 22.5 30.6 0.00 0.00 0.00 77 1013.4
20260902123911 30 112 9.7 29.0 0.00 0.00 0.00 78 1013.4
20260902123411 30 109 9.7 30.6 0.00 0.00 0.00 78 1013.3
20260902122911 30 90 12.9 30.6 0.00 0.00 0.00 78 1013.3
20260902122411 30 86 11.3 30.6 0.00 0.00 0.00 78 1013.3
20260902121911 30 82 16.1 33.8 0.00 0.00 0.00 78 1013.3
20260902121411 29 22 12.9 35.4 0.00 0.00 0.00 78 1013.2
20260902120911 29 95 19.3 35.4 0.00 0.00 0.00 78 1013.4
20260902120411 29 99 17.7 33.8 0.00 0.00 0.00 79 1012.9
20260902115911 29 72 8.0 33.8 0.00 0.00 0.00 80 1013.1
20260902115411 28 111 9.7 24.1 0.00 0.00 0.00 82 1012.7
20260902114910 29 68 9.7 24.1 0.00 0.00 0.00 82 1013.0
20260902114411 29 85 14.5 27.4 0.00 0.00 0.00 81 1013.0
20260902113911 29 79 19.3 27.4 0.00 0.00 0.00 81 1012.9
20260902113410 29 88 14.5 22.5 0.00 0.00 0.00 82 1012.9
20260902112911 28 90 14.5 22.5 0.00 0.00 0.00 83 1013.0
20260902112411 28 65 8.0 22.5 0.00 0.00 0.00 84 1013.0
20260902111911 28 78 11.3 22.5 0.00 0.00 0.00 84 1013.0
20260902111411 28 102 6.4 20.9 0.00 0.00 0.00 84 1013.0
20260902110911 28 80 11.3 20.9 0.00 0.00 0.00 84 1012.7
20260902110411 28 59 6.4 17.7 0.00 0.00 0.00 84 1013.0
20260902105911 28 55 8.0 17.7 0.00 0.00 0.00 83 1012.7
20260902105411 28 86 9.7 20.9 0.00 0.00 0.00 83 1013.0
20260902104911 28 62 9.7 20.9 0.00 0.00 0.00 83 1013.1
20260902104410 28 96 8.0 20.9 0.00 0.00 0.00 84 1012.6
20260902103911 28 144 8.0 22.5 0.00 0.00 0.00 85 1012.4
20260902103412 28 94 6.4 22.5 0.00 0.00 0.00 86 1012.4
20260902102911 28 55 4.8 17.7 0.00 0.00 0.00 86 1012.6
20260902102411 28 186 3.2 17.7 0.00 0.00 0.00 86 1012.6
20260902101910 28 117 4.8 17.7 0.00 0.00 0.00 86 1012.7
20260902101411 28 96 4.8 17.7 0.00 0.00 0.00 85 1012.6
20260902100910 28 78 8.0 17.7 0.00 0.00 0.00 84 1012.5
20260902100411 28 84 6.4 22.5 0.00 0.00 0.00 83 1012.7
20260902095911 28 172 4.8 22.5 0.00 0.00 0.00 82 1012.5
20260902095412 28 77 11.3 22.5 0.00 0.00 0.00 81 1012.7
20260902094911 27 97 3.2 27.4 0.00 0.00 0.00 80 1012.6
20260902094411 27 77 11.3 27.4 0.00 0.00 0.00 80 1012.6
20260902093911 27 68 12.9 22.5 0.00 0.00 0.00 80 1012.4
20260902093410 27 100 16.1 22.5 0.00 0.00 0.00 81 1012.7
20260902092911 27 88 14.5 29.0 0.00 0.00 0.00 83 1012.5
20260902092412 28 85 9.7 29.0 0.00 0.00 0.00 84 1012.4
20260902091911 28 76 11.3 27.4 0.00 0.00 0.00 85 1012.4
20260902091411 28 93 6.4 25.7 0.00 0.00 0.00 84 1012.3
20260902090911 28 124 6.4 27.4 0.00 0.00 0.00 84 1012.3
20260902090411 28 58 17.7 27.4 0.00 0.00 0.00 84 1012.2
20260902085911 28 76 4.8 17.7 0.00 0.00 0.00 85 1012.0
20260902085359 28 93 12.9 17.7 0.00 0.00 0.00 85 1012.0
20260902084859 28 96 8.0 17.7 0.00 0.00 0.00 85 1012.1
20260902084359 28 71 4.8 14.5 0.00 0.00 0.00 85 1012.3
20260902083847 28 117 6.4 20.9 0.00 0.00 0.00 85 1012.2
20260902083347 28 107 11.3 20.9 0.00 0.00 0.00 85 1012.1
20260902082847 28 82 9.7 16.1 0.00 0.00 0.00 85 1012.3
20260902082335 28 196 4.8 20.9 0.00 0.00 0.00 84 1012.2
20260902081838 28 93 6.4 20.9 0.00 0.00 0.00 84 1012.1
20260902081335 28 76 8.0 20.9 0.00 0.00 0.00 84 1012.1
20260902080823 28 49 9.7 20.9 0.00 0.00 0.00 84 1012.0
20260902080323 28 116 8.0 22.5 0.00 0.00 0.00 84 1011.9
20260902075823 28 81 6.4 25.7 0.00 0.00 0.00 83 1012.0
20260902075323 28 108 4.8 25.7 0.00 0.00 0.00 83 1012.1
20260902074823 28 90 8.0 24.1 0.00 0.00 0.00 83 1012.1
20260902074323 28 28 9.7 24.1 0.00 0.00 0.00 83 1011.9
20260902073823 28 49 6.4 25.7 0.00 0.00 0.00 83 1012.0
20260902073323 28 102 8.0 25.7 0.00 0.00 0.00 83 1011.8
20260902072823 28 97 12.9 25.7 0.00 0.00 0.00 83 1011.9
20260902072323 28 87 8.0 20.9 0.00 0.00 0.00 84 1012.1
20260902071823 28 82 9.7 20.9 0.00 0.00 0.00 83 1012.0
20260902071312 28 99 12.9 20.9 0.00 0.00 0.00 83 1011.9
20260902070811 28 101 9.7 20.9 0.00 0.00 0.00 83 1012.0
20260902070312 28 121 6.4 25.7 0.00 0.00 0.00 83 1012.1
20260902065811 28 69 9.7 27.4 0.00 0.00 0.00 83 1012.1
20260902065312 28 87 9.7 27.4 0.00 0.00 0.00 83 1012.0
20260902064811 28 70 9.7 22.5 0.00 0.00 0.00 84 1012.1
20260902064312 28 102 9.7 16.1 0.00 0.00 0.00 84 1012.2
20260902063811 28 70 9.7 22.5 0.00 0.00 0.00 84 1012.3
20260902063312 28 73 9.7 22.5 0.00 0.00 0.00 84 1012.5
20260902062811 28 82 12.9 25.7 0.00 0.00 0.00 84 1012.2
20260902062312 28 136 4.8 25.7 0.00 0.00 0.00 84 1012.5
20260902061810 28 171 12.9 24.1 0.00 0.00 0.00 84 1012.5
20260902061312 28 69 16.1 24.1 0.00 0.00 0.00 84 1012.4
20260902060811 28 107 9.7 20.9 0.00 0.00 0.00 84 1012.3
20260902060312 28 146 1.6 22.5 0.00 0.00 0.00 84 1012.4
20260902055811 28 71 9.7 22.5 0.00 0.00 0.00 84 1012.5
20260902055312 28 70 6.4 14.5 0.00 0.00 0.00 84 1012.6
20260902054810 28 94 4.8 16.1 0.00 0.00 0.00 84 1012.5
20260902054312 28 74 11.3 22.5 0.00 0.00 0.00 84 1012.3
20260902053812 28 64 4.8 22.5 0.00 0.00 0.00 83 1012.5
20260902053313 28 49 3.2 22.5 0.00 0.00 0.00 83 1012.6
20260902052811 28 82 9.7 24.1 0.00 0.00 0.00 83 1012.6
20260902052312 28 95 8.0 24.1 0.00 0.00 0.00 83 1012.8
20260902051811 28 11 6.4 29.0 0.00 0.00 0.00 83 1012.9
20260902051312 28 38 14.5 29.0 0.00 0.00 0.00 83 1012.3
20260902050811 28 100 19.3 27.4 0.00 0.00 0.00 83 1012.5
20260902050313 28 94 9.7 27.4 0.00 0.00 0.00 83 1012.9
20260902045811 28 53 8.0 24.1 0.00 0.00 0.00 83 1012.7
20260902045312 28 149 9.7 24.1 0.00 0.00 0.00 83 1012.8
20260902044810 28 76 6.4 33.8 0.00 0.00 0.00 84 1013.0
20260902044312 28 126 9.7 33.8 0.00 0.00 0.00 83 1013.3
20260902043811 28 136 8.0 22.5 0.00 0.00 0.00 83 1013.2
20260902043312 28 79 14.5 24.1 0.00 0.00 0.00 83 1013.3
20260902042810 28 96 11.3 25.7 0.00 0.00 0.00 83 1013.2
20260902042312 28 45 9.7 29.0 0.00 0.00 0.00 82 1013.4
20260902041810 28 107 9.7 29.0 0.00 0.00 0.00 83 1013.3
20260902041313 28 74 12.9 22.5 0.00 0.00 0.00 83 1013.3
20260902040811 28 51 9.7 22.5 0.00 0.00 0.00 83 1013.4
20260902040313 28 83 9.7 25.7 0.00 0.00 0.00 83 1013.2
20260902035811 28 119 12.9 25.7 0.00 0.00 0.00 82 1013.3
20260902035313 28 103 12.9 25.7 0.00 0.00 0.00 82 1013.3
20260902034811 28 52 12.9 25.7 0.00 0.00 0.00 82 1013.5
20260902034313 28 95 14.5 25.7 0.00 0.00 0.00 82 1013.1
20260902033759 28 71 9.7 27.4 0.00 0.00 0.00 83 1013.3
20260902033259 28 55 9.7 27.4 0.00 0.00 0.00 83 1013.2
20260902032758 28 122 14.5 27.4 0.00 0.00 0.00 83 1013.2
20260902032247 28 74 6.4 27.4 0.00 0.00 0.00 85 1013.0
20260902031747 28 123 14.5 22.5 0.00 0.00 0.00 85 1013.2
20260902031247 28 87 11.3 20.9 0.00 0.00 0.00 85 1013.2
20260902030734 28 20 9.7 16.1 0.00 0.00 0.00 85 1013.3
20260902030235 28 80 4.8 22.5 0.00 0.00 0.00 85 1013.3
20260902025735 28 70 8.0 25.7 0.00 0.00 0.00 85 1013.3
20260902025223 28 148 9.7 25.7 0.00 0.00 0.00 85 1013.2
20260902024723 28 86 11.3 20.9 0.00 0.00 0.00 84 1013.5
20260902024222 28 8 6.4 24.1 0.00 0.00 0.00 83 1013.3
20260902023723 28 68 11.3 24.1 0.00 0.00 0.00 83 1013.1
20260902023223 28 90 11.3 29.0 0.00 0.00 0.00 83 1013.2
20260902022721 28 50 14.5 29.0 0.00 0.00 0.00 83 1013.3
20260902022222 28 78 14.5 22.5 0.00 0.00 0.00 82 1013.5
20260902021722 28 89 12.9 29.0 0.00 0.00 0.00 83 1013.3
20260902021222 28 93 9.7 29.0 0.00 0.00 0.00 84 1013.4
20260902020722 28 91 9.7 20.9 0.00 0.00 0.00 85 1013.0
20260902020224 28 64 6.4 20.9 0.00 0.00 0.00 85 1013.0
20260902015722 28 70 6.4 25.7 0.00 0.00 0.00 85 1012.9
20260902015224 28 80 12.9 25.7 0.00 0.00 0.00 85 1013.1
20260902014721 28 56 6.4 25.7 0.00 0.00 0.00 84 1013.0
20260902014222 28 126 16.1 24.1 0.00 0.00 0.00 84 1013.2
20260902013722 28 103 11.3 27.4 0.00 0.00 0.00 84 1013.2
20260902013222 28 89 11.3 25.7 0.00 0.00 0.00 84 1012.8
20260902012722 28 65 9.7 25.7 0.00 0.00 0.00 84 1012.9
20260902012222 28 112 6.4 25.7 0.00 0.00 0.00 83 1012.7
20260902011722 28 76 9.7 25.7 0.00 0.00 0.00 83 1012.5
20260902011222 28 135 14.5 25.7 0.00 0.00 0.00 84 1012.4
20260902010722 28 93 14.5 24.1 0.00 0.00 0.00 84 1012.4
20260902010222 28 55 8.0 24.1 0.00 0.00 0.00 85 1012.4
20260902005722 28 37 11.3 22.5 0.00 0.00 0.00 84 1012.5
20260902005222 28 91 9.7 25.7 0.00 0.00 0.00 84 1012.6
20260902004721 28 125 11.3 25.7 0.00 0.00 0.00 84 1012.2
20260902004222 28 94 12.9 25.7 0.00 0.00 0.00 84 1012.5
20260902003722 29 76 9.7 25.7 0.00 0.00 0.00 84 1012.4
20260902003222 28 102 8.0 24.1 0.00 0.00 0.00 83 1012.3
20260902002722 28 95 14.5 22.5 0.00 0.00 0.00 84 1012.2
20260902002222 28 129 9.7 22.5 0.00 0.00 0.00 84 1012.1
20260902001722 28 24 4.8 22.5 0.00 0.00 0.00 84 1012.2
20260902001221 28 28 8.0 22.5 0.00 0.00 0.00 84 1011.9
20260902000722 29 77 4.8 17.7 0.00 0.00 0.00 84 1011.9
20260902000223 29 96 6.4 17.7 0.00 0.00 0.00 84 1011.6
20260901235722 29 83 9.7 22.5 0.00 0.00 0.00 83 1011.9
20260901235222 29 100 14.5 25.7 0.00 0.00 0.00 83 1011.5
20260901234722 29 94 3.2 25.7 0.00 0.00 0.00 83 1011.4
20260901234221 29 113 9.7 29.0 0.00 0.00 0.00 83 1011.4
20260901233722 29 78 11.3 30.6 0.00 0.00 0.00 83 1011.4
20260901233222 29 48 16.1 30.6 0.00 0.00 0.00 84 1011.3
20260901232722 29 96 14.5 30.6 0.00 0.00 0.00 84 1011.2
20260901232222 29 63 16.1 30.6 0.00 0.00 0.00 83 1011.1
20260901231722 29 64 8.0 27.4 0.00 0.00 0.00 83 1011.0
20260901231222 29 15 11.3 27.4 0.00 0.00 0.00 83 1011.0
20260901230723 29 102 9.7 35.4 0.00 0.00 0.00 83 1011.0
20260901230221 29 76 11.3 35.4 0.00 0.00 0.00 83 1010.8
20260901225722 29 153 17.7 25.7 0.00 0.00 0.00 83 1010.8
20260901225222 29 54 17.7 25.7 0.00 0.00 0.00 82 1010.8
20260901224721 29 92 9.7 25.7 0.00 0.00 0.00 83 1010.9